Flag for Russia Weather past 2 weeks in Khabarovsk, Russia

Now
72 °F

Partly cloudy.


Feels Like: 69 °F
Forecast: 69 / 83 °F
Wind: 3 mph from South

Location: Habarovsk

Current Time: Jul 30, 2014 at 1:56:34 AM

Latest Report: Jul 30, 2014 at 1:30 AM


Visibility: 3 mi

Pressure: 29.68 "Hg

Humidity: 88%

Dew point: 68 °F

Location of KhabarovskLocation

Historic Weather in Khabarovsk — Graph

°F

Khabarovsk temperature yesterday

Maximum temperature yesterday: 84 °F (at 3:30 PM)
Minimum temperature yesterday: 66 °F (at 5:30 AM)
Average temperature yesterday: 75 °F

Past Weeks' High & Low Weather Summary

 TemperatureHumidityPressure
High84 °F (Jul 29, 3:30 PM)100% (Jul 15, 4:00 PM)29.86 "Hg (Jul 15, 4:00 PM)
Low57 °F (Jul 16, 4:00 AM)51% (Jul 16, 5:30 PM)29.21 "Hg (Jul 21, 8:30 PM)
Average71 °F84%29.65 "Hg
* Reported Midnight between Jul 14 and Jul 15 — Jul 30 12:30 AM, Khabarovsk, Weather by CustomWeather, © 2014

Note: Actual official high and low records may vary slightly from our data, if they occured in-between our weather recording intervals... More about our weather records

Advertising

Khabarovsk weather history for previous 24 hours

 ConditionsComfort  
Time TempWeatherWind HumidityBarometerVisibility
12:30 AM
Jul 30
73 °FPartly cloudy.3 mph89%29.71 "Hg3 mi
12:00 AM77 °FPartly cloudy.3 mph79%29.68 "Hg3 mi
11:30 PM
Jul 29
77 °FPartly cloudy.6 mph79%29.68 "Hg3 mi
11:00 PM77 °FPartly cloudy.6 mph79%29.68 "Hg3 mi
10:30 PM75 °FBroken clouds.3 mph89%29.68 "Hg3 mi
10:00 PM77 °FBroken clouds.3 mph79%29.68 "Hg3 mi
9:30 PM79 °FBroken clouds.3 mph74%29.68 "Hg3 mi
9:00 PM79 °FBroken clouds.6 mph74%29.68 "Hg3 mi
8:30 PM81 °FBroken clouds.6 mph70%29.68 "Hg3 mi
8:00 PM81 °FBroken clouds.8 mph70%29.68 "Hg3 mi
7:30 PM81 °FBroken clouds.8 mph74%29.65 "HgN/A
7:00 PM82 °FBroken clouds.8 mph70%29.65 "HgN/A
6:30 PM82 °FBroken clouds.8 mph66%29.65 "HgN/A
6:00 PM82 °FBroken clouds.6 mph66%29.68 "HgN/A
5:30 PM84 °FBroken clouds.8 mph62%29.68 "HgN/A
5:00 PM82 °FBroken clouds.8 mph66%29.68 "HgN/A
4:30 PM82 °FBroken clouds.6 mph66%29.68 "HgN/A
4:00 PM82 °FBroken clouds.6 mph66%29.68 "HgN/A
3:30 PM84 °FBroken clouds.8 mph58%29.68 "HgN/A
3:00 PM82 °FBroken clouds.8 mph62%29.68 "HgN/A
2:30 PM81 °FBroken clouds.6 mph66%29.68 "HgN/A
1:30 PM79 °FPartly sunny.13 mph70%29.71 "HgN/A
1:00 PM81 °FPassing clouds.15 mph66%29.71 "HgN/A
12:30 PM81 °FSunny.13 mph66%29.71 "Hg10 mi
12:00 PM81 °FPassing clouds.8 mph66%29.68 "HgN/A
11:30 AM79 °FPassing clouds.6 mph70%29.68 "HgN/A
11:00 AM79 °FPassing clouds.6 mph70%29.68 "HgN/A
10:30 AM77 °FPassing clouds.6 mph74%29.68 "HgN/A
10:00 AM75 °FPassing clouds.6 mph78%29.68 "HgN/A
9:30 AM73 °FPassing clouds.3 mph78%29.68 "HgN/A
9:00 AM72 °FPassing clouds.3 mph83%29.68 "HgN/A
8:30 AM70 °FPassing clouds.3 mph83%29.68 "HgN/A
8:00 AM68 °FSunny.3 mph88%29.68 "Hg10 mi
7:30 AM66 °FSunny.3 mph94%29.68 "Hg10 mi
7:00 AM68 °FPassing clouds.3 mph88%29.68 "Hg4 mi
6:30 AM66 °FPassing clouds.3 mph94%29.65 "Hg4 mi
6:00 AM68 °FPassing clouds.3 mph94%29.65 "Hg4 mi
5:30 AM66 °FPassing clouds.3 mph100%29.68 "Hg4 mi
5:00 AM68 °FClear.3 mph94%29.68 "Hg10 mi
4:30 AM68 °FClear.3 mph94%29.65 "Hg10 mi
4:00 AM70 °FClear.3 mph94%29.65 "Hg10 mi
3:30 AM70 °FFog.3 mph94%29.65 "HgN/A
3:00 AM70 °FMild.1 mph94%29.65 "HgN/A
2:30 AM68 °FMild.3 mph94%29.65 "HgN/A
2:00 AM68 °FMild.3 mph94%29.65 "HgN/A
1:30 AM68 °FMild.3 mph94%29.65 "HgN/A
1:00 AM72 °FMild.6 mph83%29.65 "HgN/A
Weather by CustomWeather, © 2014

See weather overviewHow to use our weather pages